Hourly Weather Otnurok

Today, 4 August, Wednesday

Time Temperature Precipitation Wind Pressure Humidity
00:00 +18°C° 0 mm 0 mps 715 mmHg 64%
01:00 +18°C° 0 mm 0 mps 715 mmHg 65%
02:00 +18°C° 0 mm 0 mps 715 mmHg 64%
03:00 +18°C° 0 mm 0 mps 715 mmHg 64%
04:00 +18°C° 0 mm 0 mps 715 mmHg 64%
05:00 +19°C° 0 mm 0 mps 715 mmHg 62%
06:00 +21°C° 0 mm 0 mps 715 mmHg 59%
07:00 +22°C° 0 mm 0 mps 715 mmHg 57%
08:00 +25°C° 0 mm 0 mps 715 mmHg 50%
09:00 +29°C° 0 mm 1 mps 715 mmHg 43%
10:00 +31°C° 0 mm 1 mps 715 mmHg 36%
11:00 +32°C° 0 mm 1 mps 715 mmHg 33%
12:00 +34°C° 0 mm 2 mps 715 mmHg 30%
13:00 +35°C° 0 mm 2 mps 715 mmHg 27%
14:00 +35°C° 0 mm 2 mps 715 mmHg 27%
15:00 +35°C° 0 mm 2 mps 715 mmHg 27%
16:00 +35°C° 0 mm 2 mps 715 mmHg 26%
17:00 +30°C° 0.1 mm 2 mps 715 mmHg 37%
18:00 +27°C° 0.1 mm 2 mps 715 mmHg 48%
19:00 +24°C° 0.1 mm 2 mps 715 mmHg 59%
20:00 +21°C° 0 mm 2 mps 715 mmHg 68%
21:00 +21°C° 0 mm 1 mps 715 mmHg 76%
22:00 +19°C° 0 mm 1 mps 715 mmHg 85%
23:00 +19°C° 0 mm 1 mps 715 mmHg 85%

Tomorrow, 5 August, Thursday

Time Temperature Precipitation Wind Pressure Humidity
00:00 +19°C° 0 mm 1 mps 714 mmHg 85%
01:00 +18°C° 0 mm 1 mps 714 mmHg 85%
02:00 +18°C° 0 mm 1 mps 714 mmHg 84%
03:00 +18°C° 0 mm 1 mps 714 mmHg 83%
04:00 +18°C° 0 mm 1 mps 713 mmHg 82%
05:00 +20°C° 0 mm 1 mps 713 mmHg 77%
06:00 +21°C° 0 mm 1 mps 713 mmHg 72%
07:00 +23°C° 0 mm 1 mps 713 mmHg 67%
08:00 +25°C° 0 mm 1 mps 713 mmHg 57%
09:00 +28°C° 0 mm 2 mps 713 mmHg 47%
10:00 +30°C° 0 mm 2 mps 713 mmHg 37%
11:00 +30°C° 0 mm 3 mps 713 mmHg 36%
12:00 +31°C° 0 mm 3 mps 713 mmHg 34%
13:00 +31°C° 0 mm 3 mps 713 mmHg 33%
14:00 +32°C° 0 mm 4 mps 713 mmHg 34%
15:00 +32°C° 0 mm 4 mps 713 mmHg 35%
16:00 +30°C° 0 mm 5 mps 713 mmHg 36%
17:00 +28°C° 0 mm 4 mps 713 mmHg 43%
18:00 +26°C° 0 mm 3 mps 712 mmHg 50%
19:00 +24°C° 0 mm 2 mps 712 mmHg 57%
20:00 +23°C° 0.1 mm 2 mps 712 mmHg 64%
21:00 +21°C° 0.1 mm 1 mps 712 mmHg 71%
22:00 +18°C° 0.1 mm 0 mps 712 mmHg 77%
23:00 +19°C° 0 mm 1 mps 711 mmHg 81%

Day after tomorrow, 6 August, Friday

Time Temperature Precipitation Wind Pressure Humidity
00:00 +18°C° 0 mm 1 mps 711 mmHg 84%
01:00 +16°C° 0 mm 1 mps 711 mmHg 87%
02:00 +16°C° 0.1 mm 1 mps 711 mmHg 90%
03:00 +16°C° 0.1 mm 1 mps 711 mmHg 92%
04:00 +16°C° 0.1 mm 1 mps 711 mmHg 94%
05:00 +16°C° 0 mm 1 mps 711 mmHg 92%
06:00 +18°C° 0 mm 1 mps 712 mmHg 89%
07:00 +19°C° 0 mm 1 mps 712 mmHg 87%
08:00 +19°C° 0 mm 2 mps 712 mmHg 78%
09:00 +21°C° 0 mm 2 mps 712 mmHg 69%
10:00 +22°C° 0 mm 3 mps 712 mmHg 59%
11:00 +24°C° 0 mm 3 mps 712 mmHg 54%
12:00 +23°C° 0 mm 4 mps 713 mmHg 49%
13:00 +25°C° 0 mm 4 mps 713 mmHg 44%
14:00 +23°C° 0 mm 4 mps 713 mmHg 46%
15:00 +23°C° 0 mm 5 mps 713 mmHg 48%
16:00 +22°C° 0 mm 5 mps 713 mmHg 50%
17:00 +21°C° 0 mm 4 mps 713 mmHg 56%
18:00 +20°C° 0 mm 3 mps 713 mmHg 62%
19:00 +18°C° 0 mm 3 mps 714 mmHg 68%
20:00 +17°C° 0 mm 2 mps 714 mmHg 75%
21:00 +15°C° 0 mm 2 mps 714 mmHg 82%
22:00 +13°C° 0 mm 1 mps 714 mmHg 89%
23:00 +13°C° 0 mm 1 mps 714 mmHg 90%

7 August, Saturday

Time Temperature Precipitation Wind Pressure Humidity
00:00 +12°C° 0 mm 1 mps 714 mmHg 91%
01:00 +12°C° 0 mm 1 mps 714 mmHg 92%
02:00 +12°C° 0 mm 1 mps 714 mmHg 92%
03:00 +11°C° 0 mm 1 mps 714 mmHg 93%
04:00 +11°C° 0 mm 1 mps 714 mmHg 93%
05:00 +13°C° 0 mm 1 mps 714 mmHg 86%
06:00 +14°C° 0 mm 2 mps 714 mmHg 79%
07:00 +15°C° 0 mm 2 mps 715 mmHg 72%
08:00 +17°C° 0 mm 3 mps 715 mmHg 62%
09:00 +18°C° 0 mm 3 mps 715 mmHg 53%
10:00 +20°C° 0 mm 4 mps 715 mmHg 44%
11:00 +20°C° 0 mm 4 mps 715 mmHg 42%
12:00 +21°C° 0 mm 5 mps 715 mmHg 39%
13:00 +22°C° 0 mm 5 mps 715 mmHg 37%
14:00 +22°C° 0 mm 5 mps 715 mmHg 37%
15:00 +22°C° 0 mm 5 mps 715 mmHg 37%
16:00 +21°C° 0 mm 5 mps 716 mmHg 37%
17:00 +20°C° 0 mm 4 mps 716 mmHg 43%
18:00 +19°C° 0 mm 4 mps 716 mmHg 49%
19:00 +17°C° 0 mm 3 mps 716 mmHg 54%
20:00 +16°C° 0 mm 3 mps 716 mmHg 61%
21:00 +14°C° 0 mm 2 mps 716 mmHg 67%
22:00 +12°C° 0 mm 1 mps 716 mmHg 74%
23:00 +12°C° 0 mm 1 mps 716 mmHg 77%

8 August, Sunday

Time Temperature Precipitation Wind Pressure Humidity
00:00 +11°C° 0 mm 1 mps 716 mmHg 80%
01:00 +10°C° 0 mm 1 mps 716 mmHg 83%
02:00 +10°C° 0 mm 1 mps 716 mmHg 86%
03:00 +9°C° 0 mm 1 mps 716 mmHg 88%
04:00 +8°C° 0 mm 2 mps 716 mmHg 90%
05:00 +10°C° 0 mm 2 mps 716 mmHg 82%
06:00 +12°C° 0 mm 2 mps 716 mmHg 74%
07:00 +13°C° 0 mm 3 mps 716 mmHg 65%
08:00 +14°C° 0 mm 4 mps 716 mmHg 58%
09:00 +17°C° 0 mm 4 mps 716 mmHg 50%
10:00 +19°C° 0 mm 5 mps 717 mmHg 43%
11:00 +20°C° 0 mm 6 mps 717 mmHg 40%
12:00 +20°C° 0 mm 6 mps 717 mmHg 37%
13:00 +21°C° 0 mm 6 mps 717 mmHg 35%
14:00 +21°C° 0 mm 6 mps 717 mmHg 35%
15:00 +21°C° 0 mm 6 mps 717 mmHg 35%
16:00 +21°C° 0 mm 6 mps 717 mmHg 35%
17:00 +20°C° 0 mm 5 mps 717 mmHg 40%
18:00 +19°C° 0 mm 4 mps 717 mmHg 46%
19:00 +17°C° 0 mm 3 mps 717 mmHg 51%
20:00 +14°C° 0 mm 3 mps 717 mmHg 59%
21:00 +13°C° 0 mm 2 mps 717 mmHg 67%
22:00 +10°C° 0 mm 2 mps 717 mmHg 74%
23:00 +11°C° 0 mm 1 mps 717 mmHg 79%

9 August, Monday

Time Temperature Precipitation Wind Pressure Humidity
00:00 +10°C° 0 mm 1 mps 717 mmHg 84%
01:00 +9°C° 0 mm 1 mps 717 mmHg 89%
02:00 +9°C° 0 mm 1 mps 717 mmHg 91%
03:00 +9°C° 0 mm 1 mps 718 mmHg 92%
04:00 +9°C° 0 mm 1 mps 718 mmHg 94%
05:00 +10°C° 0 mm 1 mps 718 mmHg 87%
06:00 +12°C° 0 mm 1 mps 718 mmHg 81%
07:00 +14°C° 0 mm 1 mps 718 mmHg 75%
08:00 +16°C° 0 mm 1 mps 718 mmHg 66%
09:00 +18°C° 0 mm 2 mps 718 mmHg 56%
10:00 +21°C° 0 mm 2 mps 718 mmHg 47%
11:00 +23°C° 0 mm 2 mps 718 mmHg 41%
12:00 +24°C° 0 mm 2 mps 718 mmHg 35%
13:00 +25°C° 0 mm 3 mps 719 mmHg 28%
14:00 +26°C° 0 mm 3 mps 718 mmHg 30%
15:00 +26°C° 0 mm 3 mps 718 mmHg 32%
16:00 +26°C° 0 mm 3 mps 718 mmHg 34%
17:00 +24°C° 0 mm 2 mps 718 mmHg 45%
18:00 +21°C° 0 mm 2 mps 718 mmHg 55%
19:00 +20°C° 0 mm 1 mps 718 mmHg 66%
20:00 +19°C° 0 mm 1 mps 718 mmHg 70%
21:00 +18°C° 0 mm 1 mps 718 mmHg 73%
22:00 +14°C° 0 mm 0 mps 718 mmHg 77%
23:00 +14°C° 0 mm 0 mps 718 mmHg 78%
Show more